This is the latest recevied weather packets stored in our database for station/object EA3ANS-1. If no packets are shown the sender has not sent any weather packets the latest 10 day(s).
| Time | Temp. | Humidity | Pressure | Rain* | Wind** | Luminosity | Snow |
|---|---|---|---|---|---|---|---|
| 1777762384 | 17.22° C | - | 1018.5 hPa | 0 mm | 2.24 m/s, 83° | - | - |
| 1777761787 | 17.22° C | - | 1018.5 hPa | 0 mm | 2.24 m/s, 118° | - | - |
| 1777761189 | 17.22° C | - | 1018.5 hPa | 0 mm | 2.24 m/s, 94° | - | - |
| 1777760592 | 16.67° C | - | 1018.5 hPa | 0 mm | 1.34 m/s, 132° | - | - |
| 1777759988 | 17.22° C | - | 1018.5 hPa | 0 mm | 3.13 m/s, 68° | - | - |
| 1777759381 | 17.22° C | - | 1018.5 hPa | 0 mm | 1.34 m/s, 62° | - | - |
| 1777758783 | 17.22° C | - | 1018.8 hPa | 0 mm | 0.89 m/s, 35° | - | - |
| 1777758182 | 17.22° C | - | 1018.8 hPa | 0 mm | 1.34 m/s, 66° | - | - |
| 1777757579 | 17.22° C | - | 1018.9 hPa | 0 mm | 1.79 m/s, 113° | - | - |
| 1777756981 | 17.22° C | - | 1019 hPa | 0 mm | 1.79 m/s, 122° | - | - |
| 1777756383 | 17.22° C | - | 1019 hPa | 0 mm | 1.34 m/s, 37° | - | - |
| 1777755771 | 17.22° C | - | 1019 hPa | 0 mm | 1.79 m/s, 65° | - | - |
| 1777755174 | 17.22° C | - | 1018.8 hPa | 0 mm | 2.24 m/s, 48° | - | - |
| 1777754576 | 17.22° C | - | 1018.8 hPa | 0 mm | 2.24 m/s, 118° | - | - |
| 1777753961 | 17.22° C | - | 1018.8 hPa | 0 mm | 1.79 m/s, 83° | - | - |
| 1777753364 | 17.22° C | - | 1018.7 hPa | 0 mm | 1.34 m/s, 79° | - | - |
| 1777752766 | 17.22° C | - | 1018.8 hPa | 0 mm | 1.79 m/s, 96° | - | - |
| 1777752167 | 17.22° C | - | 1018.6 hPa | 0 mm | 0.45 m/s, 69° | - | - |
| 1777751563 | 17.22° C | - | 1018.5 hPa | 0 mm | 2.68 m/s, 42° | - | - |
| 1777750964 | 17.22° C | - | 1018.4 hPa | 0 mm | 2.24 m/s, 118° | - | - |
| 1777750366 | 17.22° C | - | 1018.4 hPa | 0 mm | 1.79 m/s, 83° | - | - |
| 1777749769 | 17.22° C | - | 1018.3 hPa | 0 mm | 1.79 m/s, 105° | - | - |
| 1777749171 | 17.22° C | - | 1018.4 hPa | 0 mm | 1.79 m/s, 97° | - | - |
| 1777748570 | 17.22° C | - | 1018.3 hPa | 0 mm | 2.24 m/s, 107° | - | - |
| 1777747968 | 17.78° C | - | 1018.4 hPa | 0 mm | 2.24 m/s, 46° | - | - |
* Rain latest hour (hover to see other rain measurements)
** Current wind speed in m/s (hover to see current wind gust speed)